Tracking 33190 objects as of 10-Feb-2026
HD Live streaming from Space Station
objects crossing your sky now

CZ-3B DEB

Track CZ-3B DEB now!


NORAD ID: 40193
Int'l Code: 2011-077S
Perigee: 826.9 km
Apogee: 42,129.0 km
Inclination: 26.2 °
Period: 770.9 minutes
Semi major axis: 27848 km
RCS: Unknown
Launch date: December 19, 2011
Source: People's Republic of China (PRC)
Launch site: Xichang Space Center, China (XSC)

Note: This is SATELLITE DEBRIS
Your satellite tracking list
Your tracking list is empty




NASA's NSSDC Master Catalog

Two Line Element Set (TLE):
1 40193U 11077S   26038.28206438 -.00000134  00000-0  55170-2 0  9994
2 40193  26.1922  64.6051 7415366 280.5599  10.7012  1.86805419 73736
Source of the keplerian elements: AFSPC